Weather History for Owensboro, KY

Change the Weather History Date:

Monday, December 30, 2013

  Actual Average Record
Temperature  
Mean Temperature 23 °F -  
Max Temperature 26 °F 44 °F 68 °F (1951)
Min Temperature 18 °F 27 °F -10 °F (1935)
Degree Days  
Heating Degree Days 42    
Moisture  
Dew Point 16 °F    
Average Humidity 73    
Maximum Humidity 92    
Minimum Humidity 53    
Precipitation  
Precipitation 0.00 in - - ()
Sea Level Pressure  
Sea Level Pressure 30.29 in    
Wind  
Wind Speed 8 mph (NW)    
Max Wind Speed 13 mph    
Max Gust Speed -    
Visibility 10 miles    
Events      
Averages and records for this station are not official NWS values.
T = Trace of Precipitation, MM = Missing Value Source: NWS Daily Summary

Daily Weather History Graph

Daily Weather History Graph

Search for Another Location

Airport:

Trip Planner

Search our weather history database for the weather conditions in past years. The results will help you decide how hot, cold, wet, or windy it might be!

Date:

Astronomy

Dec. 30, 2013 Rise Set
Actual Time 7:03 AM CST 4:39 PM CST
Civil Twilight 6:34 AM CST 5:08 PM CST
Nautical Twilight 6:01 AM CST 5:41 PM CST
Astronomical Twilight 5:29 AM CST 6:13 PM CST
Moon 4:53 AM CST (12/30) 3:11 PM CST (12/30)
Length of Visible Light 10h 34m
Length of Day
9h 35m
Waning Crescent, 4% of the Moon is Illuminated
Dec 30
Waning Crescent
Jan 1
New
Jan 7
First Quarter
Jan 15
Full
Jan 23
Last Quarter

Hourly Weather History & Observations

Time (CST) Temp. Windchill Dew Point Humidity Pressure Visibility Wind Dir Wind Speed Gust Speed Precip Events Conditions
12:56 AM 26.1 °F 15.6 °F 22.1 °F 85% 30.20 in 10.0 mi NW 11.5 mph - N/A   Overcast
1:56 AM 25.2 °F 14.4 °F 21.0 °F 84% 30.23 in 10.0 mi NW 11.5 mph - N/A   Overcast
2:39 AM 24.8 °F 14.0 °F 21.2 °F 86% 30.24 in 10.0 mi NW 11.5 mph - N/A   Overcast
2:56 AM 25.2 °F 15.1 °F 21.0 °F 84% 30.26 in 10.0 mi WNW 10.4 mph - N/A   Overcast
3:56 AM 24.1 °F 12.5 °F 20.1 °F 85% 30.26 in 10.0 mi NW 12.7 mph - N/A   Overcast
4:56 AM 24.1 °F 12.5 °F 19.0 °F 81% 30.27 in 10.0 mi NW 12.7 mph - N/A   Overcast
5:56 AM 23.0 °F 12.4 °F 18.1 °F 82% 30.29 in 10.0 mi NW 10.4 mph - N/A   Overcast
6:56 AM 22.1 °F 12.0 °F 17.1 °F 81% 30.30 in 10.0 mi NNW 9.2 mph - N/A   Overcast
7:56 AM 21.0 °F 11.4 °F 15.1 °F 78% 30.32 in 10.0 mi NNW 8.1 mph - N/A   Overcast
8:56 AM 21.0 °F 9.9 °F 16.2 °F 81% 30.34 in 10.0 mi NW 10.4 mph - N/A   Overcast
9:56 AM 22.1 °F 12.0 °F 14.0 °F 71% 30.35 in 10.0 mi NW 9.2 mph - N/A   Mostly Cloudy
10:56 AM 23.0 °F 14.7 °F 14.0 °F 68% 30.34 in 10.0 mi NNW 6.9 mph - N/A   Scattered Clouds
11:56 AM 24.1 °F 14.4 °F 12.0 °F 60% 30.31 in 10.0 mi North 9.2 mph - N/A   Partly Cloudy
12:56 PM 25.2 °F 19.5 °F 13.1 °F 60% 30.29 in 10.0 mi North 4.6 mph - N/A   Clear
1:56 PM 26.1 °F - 11.1 °F 53% 30.27 in 10.0 mi Calm Calm - N/A   Clear
2:56 PM 26.1 °F 21.9 °F 13.1 °F 58% 30.26 in 10.0 mi NNW 3.5 mph - N/A   Clear
3:56 PM 26.1 °F 18.4 °F 11.1 °F 53% 30.27 in 10.0 mi NW 6.9 mph - N/A   Overcast
4:56 PM 25.2 °F - 10.0 °F 53% 30.29 in 10.0 mi Calm Calm - N/A   Mostly Cloudy
5:56 PM 25.2 °F 19.5 °F 13.1 °F 60% 30.29 in 10.0 mi NW 4.6 mph - N/A   Clear
6:56 PM 24.1 °F - 14.0 °F 65% 30.30 in 10.0 mi Calm Calm - N/A   Clear
7:56 PM 22.1 °F - 14.0 °F 71% 30.30 in 10.0 mi Calm Calm - N/A   Clear
8:56 PM 23.0 °F - 15.1 °F 72% 30.31 in 10.0 mi Calm Calm - N/A   Clear
9:56 PM 21.0 °F - 16.2 °F 81% 30.30 in 10.0 mi Calm Calm - N/A   Clear
10:56 PM 20.1 °F 11.3 °F 17.1 °F 88% 30.30 in 10.0 mi South 6.9 mph - N/A   Partly Cloudy
11:56 PM 18.1 °F - 16.2 °F 92% 30.30 in 10.0 mi Calm Calm - N/A   Partly Cloudy